Location: Karlskoga
(59.3269°N, 14.5116°E)
Time: 02:44:02
(UTC+01:00)

ISS - Visible Passes

Search period start: 02 December 2021 00:00
Search period end: 12 December 2021 00:00
Orbit: 417 x 423 km, 51.6° (Epoch: 01 December)

Date Brightness Start Highest point End Pass type
(mag) Time Alt. Az. Time Alt. Az. Time Alt. Az.
02 Dec -1.6 16:22:01 10° SW 16:24:45 22° S 16:27:28 10° SE visible
02 Dec -1.3 17:58:31 10° WSW 18:00:51 17° SSW 18:02:15 14° SSE visible
03 Dec -1.3 17:11:19 10° WSW 17:13:50 20° SSW 17:16:23 10° SE visible
04 Dec -1.4 16:24:09 10° WSW 16:26:49 21° S 16:29:29 10° SE visible
04 Dec -0.8 18:01:26 10° SW 18:02:47 12° SSW 18:04:10 10° S visible
05 Dec -0.9 17:13:51 10° WSW 17:15:50 15° SSW 17:17:47 10° SSE visible
06 Dec -0.9 16:26:30 10° WSW 16:28:49 17° SSW 16:31:07 10° SSE visible
08 Dec -0.4 16:29:23 10° SW 16:30:41 12° SSW 16:31:59 10° S visible
